GFSSGP_850_spd_318.txt.gz
Wind_Speed
16 16 15 8 5 5 9 5 1 8 9 5 20 7 9 1 4 2 17 19 21 22 19 19 18 18 17 18 18 19 19 18 17 16 18 20 22 22 19 17 16 19 17 17 17 17 17 19 18
18 19 14 4 6 9 10 5 9 8 12 17 12 9 8 4 4 14 20 21 22 21 19 18 19 19 18 18 18 18 18 17 16 16 18 20 21 21 17 16 19 19 18 18 17 19 18 18 18
20 21 9 4 7 11 7 8 9 10 17 19 10 4 4 6 10 22 19 24 23 20 19 20 19 19 17 17 16 17 16 15 16 18 19 19 18 19 18 19 19 18 16 17 17 16 15 15 15
18 7 2 7 14 12 7 6 11 16 8 13 10 9 6 3 22 15 26 23 23 20 19 22 20 19 16 17 17 17 17 16 18 18 18 17 17 17 17 17 18 17 14 14 15 14 14 14 15
19 7 7 10 13 5 7 6 19 18 16 17 12 7 8 16 14 26 26 23 23 21 21 22 19 17 15 16 16 16 17 18 18 17 17 16 16 15 15 15 14 13 12 13 13 14 14 15 13
10 6 10 14 16 9 4 11 17 14 15 18 11 12 8 14 22 27 25 23 23 23 22 22 17 17 17 16 18 18 19 18 18 16 16 15 14 13 13 12 11 11 11 12 13 14 14 13 10
9 9 14 17 14 11 9 14 19 17 17 15 18 9 10 17 26 28 24 23 23 22 21 20 18 18 17 17 17 17 17 18 16 15 14 13 12 11 10 9 10 10 10 11 11 12 11 10 10
5 6 13 13 15 13 9 17 15 15 13 14 13 7 12 25 31 30 26 24 22 22 20 20 19 18 19 17 17 16 16 15 14 14 13 12 11 9 9 8 8 8 9 9 9 9 9 9 9
7 8 15 16 17 14 14 11 12 7 15 8 11 10 19 34 34 33 31 27 23 21 20 20 19 19 21 18 16 15 14 12 12 12 12 11 11 10 8 8 8 7 7 7 7 7 7 6 6
10 13 19 13 10 12 20 18 21 11 16 7 10 10 31 38 38 36 35 33 27 24 22 21 19 20 20 20 17 14 14 12 12 11 10 9 9 9 8 8 7 6 5 5 4 4 4 4 3
13 14 7 11 10 11 21 16 16 13 14 16 24 27 34 39 38 36 34 33 29 26 23 21 20 19 18 21 18 16 14 13 12 9 8 9 9 9 9 8 7 6 5 4 3 2 2 3 2
8 12 11 9 10 12 18 19 14 21 3 16 25 30 40 39 36 36 34 34 29 29 27 23 20 19 18 17 15 14 13 13 10 8 8 9 9 9 9 8 8 7 6 4 3 3 2 2 2
6 9 8 6 13 11 17 19 17 19 2 16 25 30 34 34 31 29 29 31 31 30 28 26 23 21 19 17 15 14 13 11 8 8 9 9 9 9 8 8 7 6 5 4 3 3 3 3 3
13 8 7 9 10 10 18 10 11 13 8 21 29 32 32 32 32 29 29 29 33 32 29 29 25 22 20 18 17 15 14 11 9 9 9 9 9 8 8 7 5 5 5 5 5 4 3 2 2
10 8 6 9 9 7 17 6 13 13 17 22 28 30 31 30 30 31 30 30 29 33 30 28 27 24 21 19 18 17 15 12 9 9 10 9 8 8 7 6 5 5 4 4 3 2 3 2 2
8 6 14 12 9 6 13 18 13 16 22 23 26 29 29 29 30 28 29 27 26 30 30 29 27 25 22 20 18 17 16 13 11 9 10 9 9 8 6 5 4 5 3 3 3 3 2 2 1
12 15 18 10 8 7 11 12 11 18 21 23 26 28 29 28 28 28 28 27 27 29 27 28 27 26 23 20 17 15 14 13 13 10 8 9 8 7 6 5 3 2 3 3 2 2 2 1 1
24 17 19 16 11 9 11 9 11 18 22 24 25 25 28 30 32 29 28 26 28 28 25 26 27 25 25 21 20 19 19 16 14 11 9 7 8 7 6 5 2 2 1 1 1 0 1 1 1
15 16 19 8 7 11 14 10 14 17 18 21 23 24 26 28 29 27 27 27 26 26 26 26 27 28 29 26 24 23 20 18 16 15 12 8 9 7 7 6 4 1 0 1 1 1 1 1 3
15 18 16 4 4 9 12 11 10 14 20 26 27 25 24 23 28 28 29 29 29 28 28 27 28 28 29 29 25 24 21 19 17 16 14 11 11 9 9 7 5 3 1 1 1 2 2 2 4
15 21 13 11 7 2 11 13 7 10 10 17 21 22 24 28 31 29 31 31 30 29 31 29 29 30 31 28 26 24 22 20 21 20 18 14 13 11 10 8 6 3 1 0 1 0 2 4 5
8 6 12 15 15 10 8 11 15 12 16 14 20 23 26 28 27 28 31 32 32 32 33 32 32 33 33 33 30 29 27 23 24 21 19 17 16 15 10 11 7 4 2 0 0 2 4 5 5
4 11 11 10 13 6 9 6 19 11 15 18 22 26 28 29 30 32 34 38 39 38 37 35 35 37 37 37 35 30 27 22 19 23 23 20 19 17 15 11 8 7 4 1 1 2 4 4 5
16 11 8 5 2 6 14 15 17 13 20 18 23 27 29 30 31 31 34 35 38 38 40 38 37 39 39 38 38 34 29 25 24 24 25 23 21 21 19 15 11 10 7 3 2 3 4 4 4
9 18 5 4 5 6 4 11 13 16 21 23 21 31 32 31 31 33 34 36 37 41 43 42 41 40 41 40 38 36 33 31 27 26 25 25 24 24 23 18 14 13 10 6 2 1 3 4 5
22 19 8 10 9 7 4 9 6 17 10 20 18 25 25 27 31 32 35 38 40 43 44 45 45 43 42 42 40 37 35 34 31 30 28 24 25 25 24 21 19 16 15 8 8 8 6 6 5
15 15 4 6 2 6 7 5 9 12 8 10 15 17 20 30 35 41 38 40 41 43 44 45 45 46 44 43 42 40 39 37 35 33 31 27 26 26 25 23 19 18 19 13 11 12 10 9 7
17 13 7 2 8 7 5 10 10 9 16 11 12 20 25 31 34 38 37 39 40 43 43 43 45 46 45 44 43 42 41 39 36 35 35 31 28 26 26 24 20 21 21 18 17 15 13 11 10
8 12 7 6 2 5 5 5 8 16 13 18 17 25 24 21 25 29 36 39 40 39 41 43 45 46 46 45 43 42 44 42 40 39 36 32 29 28 28 27 25 23 23 22 21 17 14 12 11
16 19 17 9 9 0 2 2 1 5 1 6 11 9 14 20 19 21 25 32 37 40 40 43 44 45 46 45 44 43 43 41 39 39 36 32 29 29 29 28 27 25 26 25 22 19 16 14 11

GFSSGP_850_spd_321.txt.gz
Wind_Speed
16 16 10 8 7 7 15 11 6 5 7 4 13 5 7 6 4 4 19 17 22 19 19 19 17 18 17 19 19 19 18 17 14 16 19 19 18 18 18 17 17 16 15 16 17 17 17 17 18
14 12 10 10 8 12 12 9 7 9 11 16 10 6 7 8 9 18 19 20 22 19 18 19 18 18 18 18 18 18 18 15 17 19 22 18 18 17 17 17 17 17 16 16 16 17 17 17 19
15 13 9 5 10 15 10 10 8 10 15 18 7 5 4 6 14 21 21 23 22 20 20 20 20 19 18 18 18 18 17 17 17 19 22 19 17 16 18 17 15 14 15 15 15 15 15 15 16
16 9 8 10 17 18 13 6 14 14 13 13 13 10 7 2 21 19 24 23 21 21 19 21 21 20 18 17 17 17 15 14 18 18 19 20 17 18 18 17 16 14 13 13 13 14 14 14 15
14 12 9 14 20 15 9 2 15 16 15 18 15 9 12 15 14 26 24 23 21 21 21 22 20 18 17 17 17 16 15 17 17 18 17 17 16 16 17 15 14 13 13 13 14 15 14 12 13
13 14 11 16 20 15 7 11 15 16 16 16 11 14 10 13 24 24 23 22 20 23 23 22 18 16 17 15 16 17 18 17 16 16 15 14 13 14 13 12 11 11 12 13 13 13 12 10 11
15 11 17 18 18 16 13 12 15 15 15 17 18 11 13 21 24 27 23 22 22 21 22 20 18 16 16 18 18 19 17 16 14 14 13 12 12 11 11 10 11 11 12 12 12 11 10 10 10
17 12 21 19 16 18 15 14 15 15 14 15 17 7 12 30 27 26 24 22 23 21 19 19 18 18 19 19 19 18 17 14 14 14 12 11 10 9 10 10 10 10 10 11 10 9 10 10 10
13 9 16 24 19 16 15 14 14 9 15 12 11 9 22 34 32 28 27 24 22 22 22 20 21 20 18 19 17 17 15 13 13 13 12 10 10 9 8 8 9 9 8 8 8 8 8 7 7
12 13 20 19 16 16 17 17 20 15 17 11 11 12 30 37 33 33 31 29 25 22 21 19 19 21 19 17 16 14 12 11 11 11 9 9 8 7 7 7 7 7 6 6 6 6 8 11 6
17 16 17 18 17 17 19 19 20 20 16 21 21 29 32 38 32 35 28 28 27 24 23 23 21 24 21 17 17 13 12 10 9 9 8 7 8 7 5 6 5 4 6 4 4 4 4 4 4
12 20 20 10 9 9 16 18 18 21 13 17 20 28 36 38 33 35 32 29 27 27 25 23 19 20 22 17 15 13 10 9 8 8 8 8 7 8 6 5 5 5 4 4 4 4 4 4 4
13 18 16 6 10 15 17 18 17 21 7 16 23 27 33 36 33 27 29 26 28 26 25 24 22 19 20 17 16 14 11 9 8 8 8 8 7 7 6 6 5 4 4 4 4 4 4 4 4
17 10 20 11 13 10 15 12 17 19 13 22 27 27 31 35 31 29 27 29 29 25 26 24 23 21 19 18 15 13 11 10 8 7 8 7 6 7 6 6 5 5 5 4 5 3 3 3 4
16 11 9 11 12 7 16 10 13 21 19 25 26 27 30 30 29 30 29 29 30 24 26 27 24 23 20 18 16 14 12 10 8 8 9 8 6 7 6 5 4 4 4 3 3 3 3 3 3
10 15 13 15 12 5 17 17 18 20 24 25 26 26 28 29 29 27 27 26 25 30 27 26 28 23 20 18 17 14 13 10 8 8 8 8 7 7 6 5 3 4 3 4 4 3 3 2 3
13 15 22 19 14 6 14 16 19 20 23 25 26 27 27 28 28 27 27 27 25 28 30 30 29 25 20 17 16 15 13 13 10 8 7 7 8 7 5 5 4 4 3 4 3 3 4 2 2
25 20 23 20 14 10 15 16 18 22 23 25 26 26 27 27 29 27 27 27 25 24 27 29 29 26 20 18 17 16 17 16 12 9 9 8 8 7 6 6 5 3 3 3 3 2 3 3 3
17 20 22 19 13 14 16 12 16 22 22 23 26 27 27 26 27 26 26 26 26 26 25 28 29 26 23 22 21 20 20 17 15 11 13 10 8 8 8 7 5 4 3 3 3 3 2 3 5
16 24 18 5 7 13 17 17 12 16 22 27 29 28 27 26 27 28 27 27 26 27 26 24 24 24 24 23 22 23 20 18 17 16 13 11 9 9 8 8 6 4 3 3 3 4 4 4 7
15 23 17 12 6 12 14 15 12 14 16 21 23 24 26 30 30 31 29 30 28 28 28 26 26 26 25 25 25 24 22 20 20 19 16 14 11 10 9 8 8 6 4 3 3 3 5 4 5
16 17 14 13 14 11 16 12 17 15 16 16 23 25 26 28 28 30 32 32 33 31 29 27 27 28 28 25 29 27 25 25 22 21 20 17 15 13 12 11 10 7 6 4 3 4 6 7 5
10 7 12 11 12 11 12 9 18 19 16 17 21 25 27 29 31 32 34 34 33 31 32 30 28 30 30 32 31 28 27 24 20 23 22 21 19 16 15 11 10 9 8 5 4 5 7 7 8
11 16 11 4 6 5 15 15 18 21 20 20 24 28 28 29 30 31 33 35 35 35 34 33 32 33 33 31 34 32 29 23 23 20 27 24 23 19 18 15 11 11 10 6 4 6 7 8 8
12 14 5 4 4 7 17 13 15 17 20 21 21 29 31 31 30 32 34 35 36 38 40 38 37 36 36 35 35 34 31 29 25 26 25 27 26 23 21 20 16 13 13 10 6 5 7 7 7
21 18 9 9 10 11 1 10 10 19 9 25 24 28 29 27 29 33 36 37 38 39 41 41 41 38 38 37 37 38 35 33 32 29 24 25 26 25 24 23 21 17 16 13 10 8 6 6 7
15 17 15 2 1 11 10 8 5 10 5 7 15 15 28 32 33 33 32 34 36 38 42 43 41 40 40 40 38 37 38 38 36 33 29 26 23 23 26 24 25 22 20 19 14 12 10 10 10
14 15 5 3 5 8 10 17 9 17 15 11 11 15 18 24 29 29 30 32 33 34 37 41 43 43 43 41 40 39 40 39 36 35 34 31 28 27 27 25 26 26 21 24 20 16 15 15 13
8 14 11 11 4 3 4 6 10 12 14 15 14 19 20 23 22 22 25 26 30 32 36 40 41 41 42 43 42 40 39 42 40 40 38 34 32 32 28 26 28 27 25 24 24 21 20 18 15
17 19 20 10 13 2 2 1 5 4 4 3 9 8 9 10 14 18 24 28 30 34 34 38 41 42 44 43 44 42 40 39 43 42 40 37 36 35 30 28 29 28 26 26 27 24 24 20 18

GFSSGP_850_spd_324.txt.gz
Wind_Speed
16 16 13 7 2 4 8 14 11 8 6 10 13 4 14 24 3 8 21 22 20 22 21 19 18 19 20 23 23 20 16 15 16 17 18 17 17 17 17 17 16 16 18 19 19 18 19 22 23
19 19 7 5 3 7 9 16 6 7 14 18 11 13 13 5 13 24 24 23 18 23 22 21 20 20 22 21 20 19 15 15 17 17 18 18 17 17 16 17 16 16 17 18 18 18 20 22 22
16 12 5 4 4 10 11 12 9 16 22 17 4 15 9 7 22 22 26 25 18 20 22 22 21 20 21 21 21 19 18 18 19 19 18 18 18 18 17 16 15 15 16 16 16 16 17 18 19
14 10 6 4 10 16 12 10 18 11 20 13 16 8 9 9 19 26 29 24 25 20 22 22 21 21 21 20 19 19 18 19 20 18 17 15 16 15 15 16 15 13 13 13 12 14 15 17 20
19 7 4 6 12 12 14 13 20 11 12 18 19 10 15 16 22 28 26 25 24 22 24 23 21 21 21 21 19 17 17 18 18 20 17 17 17 16 15 15 14 13 13 14 15 14 15 16 17
10 6 5 9 13 14 6 13 19 11 18 18 18 20 8 16 27 28 22 23 22 24 25 23 20 19 19 19 18 17 18 18 18 17 17 17 16 15 14 13 13 13 14 15 14 14 13 15 16
4 4 7 11 10 12 6 12 11 13 15 14 30 8 13 22 27 29 21 24 22 25 25 24 20 19 19 19 19 19 18 17 18 17 16 16 15 14 13 13 13 12 13 14 13 13 13 14 16
9 2 7 7 11 11 11 12 15 19 15 28 25 8 12 27 29 29 22 22 23 23 23 22 22 20 23 23 21 19 17 16 15 15 14 13 14 13 12 12 12 12 12 12 12 13 13 13 15
19 4 10 13 10 10 18 8 13 7 22 19 12 23 32 31 32 28 25 25 23 23 21 20 20 24 23 23 21 18 16 16 17 16 14 13 11 11 12 11 11 11 11 11 11 11 12 13 13
9 7 11 9 13 6 12 15 9 11 21 14 20 21 42 35 35 34 28 29 28 25 23 23 22 22 21 21 19 17 15 15 16 14 12 8 8 10 9 10 10 10 9 10 10 11 12 11 8
15 8 8 16 27 14 13 15 16 14 8 24 34 39 42 36 33 33 28 29 27 24 22 18 22 22 20 19 17 16 13 13 13 10 11 8 8 9 8 8 8 9 8 7 7 6 7 7 6
8 15 15 19 3 5 8 21 14 16 10 24 32 35 41 38 35 36 32 28 25 24 25 24 22 22 20 18 15 16 13 11 11 10 8 9 10 9 7 8 5 7 5 7 4 6 7 7 7
10 15 20 13 4 3 7 11 13 19 20 28 37 34 36 33 35 30 32 29 27 27 24 23 22 23 21 16 15 15 10 9 8 9 12 7 9 12 9 8 5 6 6 4 7 6 6 6 7
15 8 17 6 3 3 3 3 14 13 15 39 38 33 34 34 37 34 33 28 31 27 25 24 19 20 22 19 17 15 11 10 6 8 12 9 9 10 9 11 9 9 8 8 5 6 5 5 5
23 6 9 6 8 4 5 5 6 22 24 33 31 31 32 32 33 34 35 28 31 28 26 25 23 21 22 19 18 14 14 11 11 5 11 8 5 8 7 6 5 6 5 6 6 5 5 5 4
8 3 10 8 9 5 8 9 9 26 29 28 28 27 32 33 34 31 35 28 31 29 26 26 24 22 22 22 17 16 14 11 9 9 10 11 8 8 5 6 5 5 5 5 5 6 5 5 4
8 9 9 9 11 6 7 5 10 24 28 26 29 30 29 32 32 31 29 29 33 28 30 29 27 24 22 21 19 16 16 12 10 6 6 11 9 9 5 5 4 6 6 5 5 5 5 4 4
15 15 14 9 11 7 8 7 13 25 25 28 30 31 31 33 34 33 30 28 28 32 27 31 29 29 23 20 18 17 16 15 14 9 8 9 11 11 8 7 5 5 5 5 5 5 4 4 5
11 10 13 7 9 5 8 6 10 18 22 23 28 32 32 34 34 33 31 31 30 26 33 31 33 28 24 23 21 21 22 21 18 13 12 8 9 11 10 9 7 6 5 5 5 4 5 6 6
14 10 12 4 16 7 8 8 10 9 13 27 29 31 31 32 32 32 33 33 29 24 25 32 32 31 27 25 25 25 23 19 15 17 13 14 11 10 12 9 8 7 6 6 6 5 5 6 9
6 16 8 9 4 5 3 7 8 8 13 20 26 29 30 34 36 34 32 35 33 29 28 29 31 31 29 27 26 25 23 21 20 19 17 15 12 10 10 9 10 8 6 6 6 7 7 8 11
4 10 7 14 6 4 6 4 8 8 7 7 23 33 33 32 35 36 37 36 36 35 31 27 25 29 29 29 30 29 27 26 24 22 18 17 16 14 13 11 9 8 8 7 6 6 8 8 9
3 7 9 8 6 4 6 0 7 13 8 10 11 27 33 34 34 38 39 38 34 33 32 29 27 28 30 33 33 29 27 25 24 22 22 20 18 19 14 10 11 10 10 7 6 7 9 11 10
3 12 11 6 4 1 7 6 5 13 14 12 11 24 32 36 38 34 38 38 37 34 34 35 32 33 33 35 35 31 29 25 25 24 25 23 24 21 17 14 12 11 12 9 7 8 9 10 10
10 12 3 3 1 5 8 7 9 8 16 21 18 26 32 35 37 39 38 40 39 39 38 38 38 39 38 38 37 32 32 28 27 25 25 29 26 25 21 17 17 13 13 12 9 8 9 10 10
11 7 5 6 5 4 4 6 6 16 8 31 35 37 35 31 34 36 39 41 43 44 44 43 41 41 39 41 40 33 33 31 26 27 27 23 27 27 23 20 20 17 15 14 13 10 9 9 10
6 8 2 3 4 5 4 2 6 5 5 4 8 31 34 35 34 37 40 41 43 44 46 45 43 43 41 41 38 35 37 36 34 32 29 25 22 23 25 24 21 21 19 17 17 15 13 11 11
4 4 0 2 4 4 5 7 5 8 6 4 3 7 23 34 38 36 37 37 39 39 40 42 42 43 42 40 40 39 37 38 37 37 37 31 26 22 23 24 24 24 23 22 21 20 17 15 14
3 6 4 4 4 4 4 4 0 8 8 9 8 11 16 15 26 29 28 32 33 34 36 40 41 42 42 42 42 41 40 39 41 42 40 35 29 28 28 26 25 26 26 26 23 25 21 19 18
6 4 8 4 3 2 3 0 4 7 9 20 12 5 7 11 14 14 22 24 27 31 34 39 41 42 43 43 44 44 43 41 42 42 40 39 34 34 32 30 30 27 27 28 25 27 28 24 22

GFSSGP_850_spd_327.txt.gz
Wind_Speed
11 18 18 9 3 4 3 8 4 3 3 10 16 18 13 8 4 6 26 19 21 25 21 20 20 20 22 22 22 22 22 20 19 18 19 18 19 20 21 22 20 21 20 20 19 22 24 25 24
18 21 11 3 4 2 5 7 8 10 13 28 23 17 15 5 17 27 26 17 24 24 23 23 22 23 25 25 21 18 19 16 17 16 17 18 19 19 18 18 19 19 19 18 21 23 25 23 21
24 17 4 4 4 6 4 4 4 5 23 18 8 17 7 9 25 20 25 20 26 25 24 23 23 24 23 19 19 17 16 18 18 18 18 19 20 19 18 17 17 18 18 19 19 21 21 21 19
21 8 4 3 9 7 4 0 12 10 17 13 22 9 14 11 19 31 24 21 27 25 25 24 23 23 23 22 20 17 18 20 19 18 18 17 17 16 17 17 16 14 14 17 18 20 20 21 18
19 6 2 4 7 4 7 8 20 6 10 18 15 7 14 15 32 28 26 19 25 27 25 24 23 23 22 22 21 18 19 20 19 17 16 17 16 17 16 16 15 15 15 16 16 18 20 21 21
7 5 4 5 6 8 2 17 24 9 21 22 22 17 10 25 31 27 26 22 22 28 27 25 23 23 23 22 21 19 19 20 18 17 18 17 16 15 15 14 14 15 16 16 16 17 18 19 17
6 4 6 6 5 7 6 18 16 13 15 8 30 6 16 27 30 26 25 23 22 27 28 26 23 22 21 20 18 18 19 19 19 20 19 17 15 14 14 15 15 15 16 15 18 18 18 19 18
5 4 8 7 7 9 7 15 30 26 6 34 31 9 18 34 32 26 23 23 25 27 26 24 23 23 22 20 19 17 19 19 19 19 17 16 15 14 14 13 14 14 14 15 17 17 18 20 18
15 3 8 9 9 10 10 7 13 22 29 9 8 30 39 37 32 29 26 26 27 25 25 24 24 23 23 23 20 19 17 17 16 16 16 16 14 13 13 13 13 13 13 14 15 16 17 17 16
8 4 8 6 6 3 11 17 16 17 16 14 23 25 40 39 35 32 32 30 29 26 24 24 23 26 26 23 21 19 17 19 17 14 12 12 13 13 12 13 12 13 12 13 13 13 14 14 12
11 7 4 12 20 1 7 11 13 26 5 27 38 48 44 42 36 34 31 32 31 27 23 23 25 25 24 23 19 18 19 18 16 12 11 11 13 12 11 12 12 12 12 10 9 9 9 9 11
8 8 17 5 4 6 6 11 9 26 10 31 39 52 51 46 39 37 33 34 32 27 22 24 24 24 22 19 18 17 17 15 13 12 10 12 13 12 10 12 11 10 9 8 9 9 9 9 10
4 10 14 10 6 4 1 9 9 15 30 30 39 43 44 43 38 35 34 30 28 25 24 22 26 22 22 17 17 15 11 12 12 12 13 10 11 11 8 7 9 8 8 8 8 8 9 10 10
12 16 12 7 5 4 3 5 13 11 35 36 40 43 40 36 42 34 34 34 30 28 27 27 26 24 21 17 16 16 10 10 9 14 11 9 14 12 10 10 9 10 8 8 7 7 7 8 7
15 5 3 4 6 4 7 5 7 26 41 39 39 42 37 30 37 39 35 31 30 30 28 27 26 26 23 19 19 17 12 8 10 13 12 9 11 10 11 10 8 7 8 7 8 8 8 8 8
9 6 8 5 8 2 5 5 5 37 38 31 34 35 33 32 35 35 36 35 30 30 28 27 22 26 24 24 20 18 16 12 10 10 13 12 10 8 8 8 7 8 8 8 8 8 8 7 7
5 9 6 4 7 5 4 4 5 31 36 28 31 32 31 31 34 34 34 35 37 31 28 27 27 25 25 23 22 19 17 13 12 9 15 13 11 8 6 6 6 9 8 8 8 8 8 7 7
11 12 12 9 7 5 4 5 7 27 29 31 32 30 31 32 36 37 35 32 34 32 29 29 27 25 26 26 23 21 19 15 13 10 8 14 12 11 8 8 7 8 8 9 9 8 7 7 8
12 8 8 4 6 6 7 4 8 19 22 22 26 31 31 34 36 37 39 34 36 34 33 30 30 27 28 28 26 23 22 19 17 14 11 10 13 14 12 10 7 9 8 8 8 8 8 9 9
11 11 4 4 8 6 7 6 7 8 18 32 33 32 34 32 39 33 38 41 39 37 34 36 34 32 29 28 27 26 25 22 21 18 14 11 13 14 14 9 10 10 9 8 7 8 10 11 12
9 16 8 9 5 5 7 1 5 5 9 23 26 30 33 39 43 37 42 41 38 40 39 36 37 35 32 28 27 28 26 24 27 24 20 17 14 12 14 12 12 11 9 9 9 10 10 11 14
9 9 11 14 6 6 4 4 6 8 8 11 25 33 36 39 39 42 45 45 41 39 34 31 38 37 35 31 33 31 31 31 28 25 22 21 18 16 14 13 12 11 10 10 9 10 11 12 13
4 14 14 8 7 7 3 5 5 10 9 8 15 33 37 42 43 44 47 45 41 38 35 30 32 38 39 36 35 33 31 28 26 24 23 23 21 19 17 13 13 13 11 10 10 10 11 12 13
1 11 8 5 5 2 5 5 4 12 14 8 8 27 40 42 43 42 41 43 42 39 36 34 30 31 36 40 39 35 31 29 30 27 26 26 24 24 22 16 14 13 13 12 11 10 11 11 12
12 10 3 3 2 5 5 4 6 8 10 16 13 29 37 44 44 45 44 43 43 41 38 38 35 34 36 40 40 37 33 30 31 29 29 29 27 29 26 21 18 16 14 14 12 10 11 12 13
10 5 5 6 5 4 5 5 5 9 15 22 37 36 43 44 42 43 44 44 45 44 42 40 39 39 39 40 40 38 35 31 32 29 31 29 29 29 26 23 21 19 16 15 15 13 12 13 13
6 3 5 6 2 4 3 4 4 5 5 11 25 20 26 43 45 44 44 47 47 46 44 43 42 42 41 42 41 39 35 34 33 32 29 27 26 29 26 26 25 21 20 18 18 18 16 14 14
2 2 2 3 5 5 2 4 4 4 6 6 7 22 31 32 37 38 42 44 44 46 45 43 43 43 43 43 41 39 38 36 34 35 32 30 29 26 27 28 27 24 22 22 21 21 21 20 18
3 2 2 2 4 4 4 3 10 7 6 5 4 5 12 28 30 30 33 36 39 40 41 44 45 44 43 44 42 41 41 39 37 39 37 36 33 30 28 27 28 27 26 25 26 25 24 24 22
3 4 6 4 2 1 4 0 8 10 14 21 21 25 28 21 18 12 11 22 31 34 35 36 39 43 43 41 44 44 43 41 40 41 41 40 40 37 32 30 30 27 26 25 27 30 28 29 28

GFSSGP_850_spd_330.txt.gz
Wind_Speed
13 20 21 12 3 4 3 6 3 1 2 3 13 9 10 5 3 4 20 21 24 24 22 22 21 21 21 22 23 23 24 22 21 20 20 20 20 20 20 20 20 19 20 21 21 21 21 21 20
16 21 18 5 4 3 5 4 7 5 13 22 26 18 9 3 9 21 28 21 23 25 24 23 23 24 25 25 23 23 23 22 19 18 19 21 20 20 20 20 19 18 18 20 21 21 21 20 18
19 22 7 5 4 6 3 6 10 6 24 3 8 14 7 8 23 28 25 27 27 25 23 24 25 26 27 25 23 21 20 19 18 18 17 19 19 18 18 17 17 18 19 21 20 18 18 18 15
21 9 3 4 8 4 6 4 8 10 8 7 22 9 12 9 21 23 27 28 28 27 25 26 27 27 23 17 18 19 20 16 19 19 20 19 17 18 17 17 17 18 19 20 20 19 16 15 14
22 6 3 4 6 4 6 2 10 6 6 12 8 6 6 14 19 27 26 30 30 29 27 26 24 22 22 21 20 20 22 22 22 20 19 18 19 18 16 15 16 17 19 20 21 19 15 15 11
9 4 4 5 6 5 4 10 13 7 12 18 19 14 6 24 27 26 26 29 29 29 28 26 25 24 23 23 21 21 22 21 19 19 19 18 17 17 16 15 15 17 18 20 20 19 15 13 10
7 4 6 7 5 3 7 11 10 12 13 7 26 6 18 30 25 28 27 28 29 29 28 27 25 24 21 19 18 21 21 20 20 19 18 16 16 16 16 16 18 17 17 19 19 18 14 11 8
6 4 6 7 7 8 8 15 23 27 4 27 28 8 16 34 29 28 26 27 28 29 28 28 27 25 22 18 17 18 20 20 20 18 16 15 15 15 15 16 17 16 18 21 20 20 17 11 9
6 4 6 10 10 9 10 6 13 14 29 6 5 29 39 37 32 30 29 28 29 28 27 27 26 24 22 20 19 19 19 20 19 17 15 14 14 15 16 15 15 16 17 19 20 19 17 12 8
6 5 9 5 7 5 6 12 20 12 13 7 20 32 43 38 36 33 32 32 32 31 28 26 25 23 23 21 19 19 19 19 19 18 16 13 14 15 15 14 14 14 14 15 16 16 14 10 7
9 7 5 7 11 17 6 6 10 28 4 29 38 47 45 41 36 34 32 34 34 31 29 27 26 25 24 22 20 18 20 18 17 15 15 15 13 13 13 13 13 13 13 12 12 12 12 10 6
10 5 9 3 11 5 5 13 7 34 18 38 41 53 49 44 41 37 35 35 34 31 29 27 26 25 23 22 20 19 18 16 14 14 13 14 14 14 13 13 13 11 11 10 10 10 10 10 9
5 9 7 4 3 8 11 10 9 6 28 36 44 51 48 44 40 35 34 34 33 31 27 26 27 24 23 19 19 19 16 14 13 12 14 12 11 11 13 12 11 11 10 9 10 10 10 9 8
10 18 5 7 7 4 6 7 7 10 33 40 47 44 47 44 42 38 36 36 33 28 24 28 25 23 21 19 19 15 15 12 12 13 13 11 11 11 9 11 10 10 8 9 9 9 10 10 7
12 13 4 2 5 3 13 5 7 34 37 38 39 42 43 42 39 39 38 37 34 29 23 24 24 23 21 15 16 12 12 11 12 13 12 9 9 8 8 9 9 9 9 10 9 9 10 9 9
7 8 8 4 4 1 1 3 4 33 38 31 33 36 37 40 38 37 37 36 30 27 26 26 28 26 20 18 19 15 12 9 12 12 11 11 13 11 11 10 10 10 10 10 11 11 11 10 10
1 13 6 6 7 3 3 5 7 26 32 29 29 34 36 33 35 34 35 35 33 31 29 29 28 27 26 22 19 19 15 11 10 13 13 12 12 11 10 11 10 11 12 12 11 11 9 9 9
10 9 4 8 6 3 4 5 13 22 30 31 30 32 32 33 37 37 35 34 32 31 29 29 27 30 29 25 22 20 20 15 14 10 13 13 12 10 9 10 10 11 11 11 11 9 9 8 9
11 6 11 4 5 6 7 8 16 17 17 23 26 30 31 32 37 35 36 34 34 33 30 30 29 28 28 28 27 25 22 20 18 15 11 14 14 12 9 9 10 11 11 11 11 11 10 11 12
12 12 5 5 4 6 3 5 9 14 21 32 32 30 32 31 34 39 38 37 37 36 35 32 31 31 32 31 30 27 24 22 20 19 15 12 14 16 14 12 10 11 11 11 11 11 13 13 13
5 15 7 10 4 5 7 2 5 5 7 17 24 27 28 33 35 40 42 41 38 39 38 35 34 32 31 32 31 28 26 25 24 24 21 17 13 17 18 14 11 12 12 11 11 11 12 14 16
9 8 9 13 7 6 2 4 3 7 7 13 20 30 36 36 35 40 47 47 43 41 39 37 35 35 34 32 32 33 33 34 31 27 24 21 16 14 16 16 15 14 13 12 12 13 14 15 17
7 9 9 6 5 5 1 4 5 8 7 11 20 31 36 41 41 42 46 48 47 45 44 39 38 37 36 36 35 36 36 32 29 30 28 26 23 21 20 16 16 15 16 14 14 14 14 16 17
7 10 8 5 4 1 5 5 4 9 18 6 17 29 36 37 39 42 43 43 44 44 44 44 43 42 40 40 39 38 38 35 32 32 31 31 27 26 23 21 16 15 16 16 15 14 15 15 16
9 16 3 2 1 5 2 2 7 5 11 13 18 28 35 38 38 41 46 45 46 45 42 41 42 41 40 45 44 41 41 35 33 31 32 32 30 28 27 25 21 18 17 17 17 16 15 15 16
6 7 8 10 6 4 3 6 7 8 11 24 32 36 39 40 41 43 44 46 46 46 44 43 43 40 35 41 47 45 40 37 35 31 32 34 33 29 27 29 25 21 20 18 19 18 16 16 16
2 2 6 8 1 4 2 5 5 4 6 9 11 18 30 37 42 45 44 45 45 45 45 45 44 41 36 36 40 44 42 39 37 33 31 35 33 32 29 28 28 25 23 23 20 20 18 17 16
3 3 3 3 6 4 2 4 2 8 11 12 6 14 22 30 34 40 43 45 44 42 42 42 42 40 37 36 38 36 38 38 37 35 34 35 33 33 31 31 29 29 26 24 24 22 21 21 19
0 1 4 5 4 5 4 5 1 5 9 7 13 18 12 14 21 26 29 33 37 38 39 41 40 40 39 37 38 37 37 38 38 37 36 35 35 34 32 30 31 31 30 27 25 26 25 24 24
1 4 4 4 4 2 3 4 3 5 10 12 16 19 17 15 14 13 17 20 24 29 32 36 39 41 40 38 39 40 39 40 40 39 38 37 37 36 34 32 32 33 33 30 29 28 28 28 28

GFSSGP_850_spd_333.txt.gz
Wind_Speed
14 16 19 12 4 4 3 5 2 3 3 2 6 5 10 7 4 4 21 25 24 23 22 22 20 18 17 20 22 22 22 22 21 20 20 21 21 21 20 20 20 19 20 19 20 20 18 19 18
18 19 18 4 5 4 5 4 6 3 9 21 14 12 7 3 6 15 28 23 24 24 24 23 21 20 20 22 23 23 21 20 18 17 19 19 18 19 20 21 20 19 19 18 19 18 16 16 15
19 23 7 4 4 8 5 6 9 6 15 5 6 10 5 7 13 31 25 27 25 24 24 23 23 23 24 23 22 22 21 21 20 19 15 18 18 19 19 18 18 18 18 18 19 17 17 15 15
18 11 3 3 6 5 5 7 7 10 4 4 17 8 8 5 28 20 29 27 27 26 24 25 25 26 26 23 24 23 20 16 17 17 14 14 15 16 16 17 19 19 18 17 18 17 14 15 16
25 7 3 3 6 5 4 3 17 9 7 13 7 5 5 16 15 24 28 28 28 27 26 27 28 27 24 18 15 17 15 19 18 21 21 13 14 15 16 16 17 18 18 16 16 14 14 15 15
9 6 4 5 5 6 3 9 13 6 7 12 12 10 4 16 20 27 27 28 27 29 28 28 25 21 20 17 18 16 20 20 21 22 19 16 14 14 15 17 17 18 18 16 15 15 13 13 13
6 5 6 7 6 5 6 11 9 10 12 6 20 5 14 27 25 26 28 27 27 29 29 26 22 21 21 21 23 22 23 21 19 18 18 17 15 14 15 17 17 18 18 15 13 12 11 11 12
5 4 6 8 8 7 8 11 13 21 4 23 20 8 13 33 27 28 29 28 29 29 28 27 27 25 24 22 22 22 21 19 18 17 16 17 16 16 17 16 17 19 19 17 13 11 10 10 11
7 4 7 10 10 7 12 5 12 9 23 6 6 15 33 35 31 32 32 29 28 29 28 27 25 23 21 20 20 20 19 19 18 16 15 15 15 16 17 16 17 19 18 18 14 10 10 10 10
7 5 10 6 8 8 7 15 19 9 11 5 16 20 41 38 35 35 35 33 31 31 29 28 26 24 21 20 19 20 19 19 17 16 14 14 14 15 16 16 16 17 17 17 14 11 9 8 9
10 10 5 7 14 17 10 6 11 25 4 16 34 39 42 41 37 35 33 34 33 32 30 28 26 23 21 21 19 19 20 20 18 15 14 14 14 14 14 15 14 14 14 14 13 10 7 7 7
9 4 8 9 13 10 8 20 8 29 9 31 39 52 48 43 41 38 35 35 35 32 30 27 25 23 20 19 19 20 21 20 17 15 14 13 13 13 13 13 13 13 12 12 12 9 6 6 7
5 6 5 7 16 7 16 10 11 10 6 30 41 49 47 43 38 35 33 34 34 32 30 28 26 24 22 18 18 20 18 16 15 15 15 12 11 12 13 12 12 10 9 9 10 9 8 7 6
12 9 1 5 8 9 8 5 14 5 26 37 47 43 46 44 40 35 35 38 34 32 30 29 27 25 21 19 18 17 15 13 13 12 13 12 10 10 11 11 11 10 9 9 8 8 7 7 6
14 6 3 1 3 4 15 4 6 24 34 37 34 37 41 42 39 36 37 38 35 32 29 28 27 23 21 19 18 14 13 11 12 12 12 10 10 10 9 9 9 9 9 9 9 8 8 7 7
7 6 5 4 4 3 3 5 3 25 39 32 32 33 36 42 39 35 36 35 33 30 28 27 24 24 21 17 16 13 13 11 10 11 11 10 10 8 7 8 9 9 9 9 9 8 9 8 7
2 15 6 3 3 4 4 3 8 21 27 31 28 31 34 37 38 35 35 35 33 29 26 24 24 24 19 16 16 13 10 9 9 11 10 9 9 8 8 9 9 10 10 10 10 10 9 9 9
16 14 4 7 5 5 6 4 13 19 25 31 29 28 32 36 40 37 35 35 32 29 26 22 24 25 21 18 17 15 12 10 8 9 11 10 10 10 9 10 10 11 11 11 11 11 11 10 10
9 13 14 1 3 7 6 9 15 15 14 19 22 27 28 33 35 34 33 33 33 29 27 24 28 26 26 24 23 20 19 16 13 11 8 11 11 10 10 11 11 12 11 11 12 12 12 13 13
8 16 4 5 4 7 3 7 14 16 22 28 32 29 32 31 32 33 35 36 35 33 31 29 28 29 26 28 26 23 21 20 17 16 13 10 12 13 11 8 9 10 12 12 12 13 13 13 15
4 19 6 9 5 7 7 4 3 7 8 14 18 23 26 37 36 36 35 34 35 35 34 31 29 28 32 30 28 25 23 22 21 21 20 16 12 11 14 13 10 11 12 12 12 13 14 15 17
7 8 9 10 6 6 3 4 4 4 7 11 18 24 33 37 36 40 39 39 39 37 35 32 31 30 30 31 30 30 30 28 26 24 22 20 17 14 12 16 15 13 13 14 13 14 14 15 17
6 6 8 5 6 6 3 4 5 5 8 13 18 26 33 38 38 40 42 40 39 38 38 35 34 33 34 33 33 32 32 30 27 27 24 23 21 18 14 16 15 16 16 15 15 15 15 17 18
8 9 9 6 4 1 4 4 4 6 13 7 17 25 35 37 39 38 37 41 43 40 38 37 37 35 34 34 35 34 35 33 30 31 29 26 26 23 21 21 20 16 17 18 17 16 17 17 18
7 15 3 3 2 4 3 3 7 4 9 14 20 29 38 39 39 40 40 43 47 46 41 40 39 38 37 35 36 36 34 34 34 33 32 31 30 30 28 27 24 21 18 18 18 18 18 18 18
2 5 5 6 4 5 3 6 5 4 8 10 22 35 36 37 38 39 39 41 46 47 46 46 44 43 40 38 37 36 38 37 35 35 35 34 34 32 30 29 26 24 22 19 19 20 20 19 18
4 2 3 8 2 3 3 5 4 7 9 17 11 6 20 31 35 37 36 38 42 42 43 43 45 44 44 44 42 43 37 41 40 37 36 35 34 32 34 31 28 27 26 24 22 22 21 21 19
5 6 4 2 6 5 3 4 4 3 7 10 15 17 9 9 18 25 30 35 38 40 38 39 41 41 39 42 44 39 34 35 41 41 38 38 34 31 34 34 33 28 28 28 27 24 23 23 22
2 1 4 5 4 5 4 6 1 1 4 6 10 13 10 3 7 13 20 27 32 34 36 38 40 42 41 42 42 39 34 33 35 39 40 36 35 33 31 34 35 33 31 31 31 29 26 27 25
2 2 4 5 4 1 3 5 3 5 6 6 9 10 9 8 5 7 11 16 21 25 29 31 33 36 39 42 43 40 36 33 34 33 33 34 34 33 33 33 34 34 34 33 34 33 30 28 29